QF83 YSSY-YMML

Flight info

Callsign QF83
Flight time 1h 9m
Altitude 34000
Route KEVIN7 KEVIN DCT WOL H65 LEECE Q29 ML DCT
Aircraft B38M/M-SDE1FGHILORVWXY/HB1

Departure

Time 2026-05-05 11:29
Airport Sydney Kingsford Smith International Airport (YSSY)

Arrival

Time 2026-05-05 12:38
Airport Melbourne Airport (YMML)
Time Latitude Longitude Altitude Speed Heading
2026-05-05 10:58 -33.93198 151.17624 31 ft 0 kts 77°
2026-05-05 11:13 -33.93200 151.17615 4 ft 3 kts 77°
2026-05-05 11:13 -33.93204 151.17593 42 ft 3 kts 77°
2026-05-05 11:13 -33.93206 151.17578 31 ft 0 kts 66°
2026-05-05 11:13 -33.93206 151.17577 31 ft 2 kts 57°
2026-05-05 11:14 -33.93210 151.17556 31 ft 3 kts 122°
2026-05-05 11:14 -33.93197 151.17544 28 ft 1 kts 169°
2026-05-05 11:16 -33.93199 151.17544 30 ft 0 kts 169°
2026-05-05 11:18 -33.93201 151.17544 30 ft 1 kts 169°
2026-05-05 11:18 -33.93220 151.17549 30 ft 4 kts 169°
2026-05-05 11:18 -33.93258 151.17559 31 ft 7 kts 166°
2026-05-05 11:19 -33.93312 151.17574 31 ft 9 kts 168°
2026-05-05 11:19 -33.93380 151.17589 29 ft 11 kts 174°
2026-05-05 11:19 -33.93462 151.17585 29 ft 14 kts 183°
2026-05-05 11:19 -33.93563 151.17603 28 ft 16 kts 167°
2026-05-05 11:20 -33.93663 151.17651 30 ft 16 kts 152°
2026-05-05 11:20 -33.93790 151.17698 21 ft 16 kts 166°
2026-05-05 11:20 -33.93875 151.17765 23 ft 14 kts 149°
2026-05-05 11:20 -33.93958 151.17794 25 ft 12 kts 167°
2026-05-05 11:21 -33.94045 151.17817 27 ft 14 kts 168°
2026-05-05 11:21 -33.94146 151.17843 26 ft 15 kts 168°
2026-05-05 11:21 -33.94256 151.17872 29 ft 17 kts 168°
2026-05-05 11:21 -33.94381 151.17904 27 ft 19 kts 168°
2026-05-05 11:22 -33.94518 151.17885 24 ft 21 kts 179°
2026-05-05 11:22 -33.94633 151.17912 27 ft 11 kts 166°
2026-05-05 11:22 -33.94667 151.17921 24 ft 0 kts 167°
2026-05-05 11:22 -33.94727 151.17936 27 ft 9 kts 168°
2026-05-05 11:23 -33.94795 151.17953 22 ft 12 kts 168°
2026-05-05 11:23 -33.94892 151.17978 23 ft 17 kts 168°
2026-05-05 11:23 -33.95029 151.18013 26 ft 23 kts 167°
2026-05-05 11:23 -33.95100 151.18123 26 ft 17 kts 79°
2026-05-05 11:24 -33.95070 151.18292 26 ft 24 kts 78°
2026-05-05 11:24 -33.95048 151.18413 27 ft 0 kts 78°
2026-05-05 11:24 -33.95048 151.18414 27 ft 1 kts 78°
2026-05-05 11:25 -33.95047 151.18418 27 ft 0 kts 78°
2026-05-05 11:26 -33.95042 151.18445 27 ft 9 kts 78°
2026-05-05 11:26 -33.95019 151.18569 27 ft 21 kts 77°
2026-05-05 11:26 -33.94997 151.18700 25 ft 20 kts 78°
2026-05-05 11:27 -33.94985 151.18823 26 ft 8 kts 113°
2026-05-05 11:27 -33.95042 151.18853 26 ft 6 kts 167°
2026-05-05 11:27 -33.95044 151.18854 26 ft 0 kts 167°
2026-05-05 11:28 -33.95112 151.18871 25 ft 37 kts 168°
2026-05-05 11:28 -33.95586 151.18993 26 ft 98 kts 168°
2026-05-05 11:28 -33.96388 151.19199 23 ft 138 kts 168°
2026-05-05 11:28 -33.97423 151.19462 429 ft 156 kts 170°
2026-05-05 11:29 -33.98477 151.19877 949 ft 165 kts 151°
2026-05-05 11:29 -33.99335 151.20914 1635 ft 183 kts 124°
2026-05-05 11:29 -33.99860 151.22315 2545 ft 187 kts 116°
2026-05-05 11:29 -34.00438 151.23778 3153 ft 200 kts 120°
2026-05-05 11:30 -34.01333 151.25096 3744 ft 212 kts 142°
2026-05-05 11:30 -34.02531 151.26253 4296 ft 229 kts 143°
2026-05-05 11:30 -34.03828 151.27504 4829 ft 248 kts 142°
2026-05-05 11:30 -34.05201 151.28847 5501 ft 259 kts 142°
2026-05-05 11:31 -34.06628 151.30248 6201 ft 269 kts 142°
2026-05-05 11:31 -34.08100 151.31691 6941 ft 276 kts 143°
2026-05-05 11:31 -34.09602 151.33160 7697 ft 281 kts 143°
2026-05-05 11:31 -34.11190 151.34532 8509 ft 281 kts 159°
2026-05-05 11:32 -34.13083 151.35038 9304 ft 281 kts 183°
2026-05-05 11:32 -34.14989 151.34556 10101 ft 282 kts 207°
2026-05-05 11:32 -34.16582 151.33163 10687 ft 289 kts 227°
2026-05-05 11:32 -34.17948 151.31328 11092 ft 306 kts 230°
2026-05-05 11:33 -34.19367 151.29320 11469 ft 323 kts 230°
2026-05-05 11:33 -34.20884 151.27216 11756 ft 342 kts 229°
2026-05-05 11:33 -34.22506 151.25018 12114 ft 357 kts 229°
2026-05-05 11:33 -34.24181 151.22737 12645 ft 367 kts 229°
2026-05-05 11:34 -34.25878 151.20401 13294 ft 373 kts 229°
2026-05-05 11:34 -34.27600 151.18029 13965 ft 377 kts 229°
2026-05-05 11:34 -34.29346 151.15633 14587 ft 381 kts 229°
2026-05-05 11:34 -34.31107 151.13216 15207 ft 385 kts 230°
2026-05-05 11:35 -34.32885 151.10769 15848 ft 389 kts 230°
2026-05-05 11:35 -34.34681 151.08295 16506 ft 392 kts 230°
2026-05-05 11:35 -34.36483 151.05812 17148 ft 395 kts 230°
2026-05-05 11:35 -34.38305 151.03301 17776 ft 398 kts 230°
2026-05-05 11:36 -34.40139 151.00772 18408 ft 401 kts 230°
2026-05-05 11:36 -34.41985 150.98222 18966 ft 404 kts 230°
2026-05-05 11:36 -34.43821 150.95685 19505 ft 407 kts 231°
2026-05-05 11:36 -34.45694 150.93097 20033 ft 410 kts 231°
2026-05-05 11:37 -34.47545 150.90538 20049 ft 396 kts 231°
2026-05-05 11:37 -34.49346 150.88047 20045 ft 394 kts 231°
2026-05-05 11:37 -34.51166 150.85519 20395 ft 402 kts 231°
2026-05-05 11:37 -34.53024 150.82939 20838 ft 409 kts 231°
2026-05-05 11:38 -34.54912 150.80322 21297 ft 414 kts 231°
2026-05-05 11:38 -34.56711 150.77583 21763 ft 417 kts 235°
2026-05-05 11:38 -34.58442 150.74738 22243 ft 421 kts 236°
2026-05-05 11:38 -34.60173 150.71850 22724 ft 424 kts 236°
2026-05-05 11:39 -34.61919 150.68940 23200 ft 427 kts 236°
2026-05-05 11:39 -34.63681 150.66022 23680 ft 430 kts 236°
2026-05-05 11:39 -34.65461 150.63076 24112 ft 433 kts 236°
2026-05-05 11:39 -34.67246 150.60106 24518 ft 436 kts 236°
2026-05-05 11:40 -34.69042 150.57111 24923 ft 439 kts 236°
2026-05-05 11:40 -34.70842 150.54113 25327 ft 441 kts 236°
2026-05-05 11:40 -34.72625 150.51147 25906 ft 439 kts 236°
2026-05-05 11:40 -34.74418 150.48158 26478 ft 437 kts 236°
2026-05-05 11:41 -34.76203 150.45174 27035 ft 435 kts 236°
2026-05-05 11:41 -34.77980 150.42204 27572 ft 433 kts 237°
2026-05-05 11:41 -34.79748 150.39250 28100 ft 432 kts 237°
2026-05-05 11:41 -34.81511 150.36300 28626 ft 430 kts 237°
2026-05-05 11:42 -34.83269 150.33354 29134 ft 429 kts 237°
2026-05-05 11:42 -34.85017 150.30423 29628 ft 428 kts 237°
2026-05-05 11:42 -34.86763 150.27493 30121 ft 427 kts 237°
2026-05-05 11:42 -34.88504 150.24571 30557 ft 426 kts 237°
2026-05-05 11:43 -34.90241 150.21650 30949 ft 425 kts 237°
2026-05-05 11:43 -34.91969 150.18745 31349 ft 424 kts 237°
2026-05-05 11:43 -34.93693 150.15842 31749 ft 422 kts 238°
2026-05-05 11:43 -34.95413 150.12944 32147 ft 421 kts 238°
2026-05-05 11:44 -34.97126 150.10055 32559 ft 420 kts 238°
2026-05-05 11:44 -34.98839 150.07166 32959 ft 419 kts 238°
2026-05-05 11:44 -35.00543 150.04287 33345 ft 418 kts 238°
2026-05-05 11:44 -35.02223 150.01449 33732 ft 418 kts 238°
2026-05-05 11:45 -35.03919 149.98578 34065 ft 417 kts 238°
2026-05-05 11:45 -35.07315 149.92827 34092 ft 416 kts 238°
2026-05-05 11:46 -35.10700 149.87082 34099 ft 416 kts 238°
2026-05-05 11:46 -35.14084 149.81332 34106 ft 417 kts 238°
2026-05-05 11:47 -35.17467 149.75574 34104 ft 417 kts 238°
2026-05-05 11:47 -35.20841 149.69820 34103 ft 417 kts 238°
2026-05-05 11:48 -35.25334 149.62145 34101 ft 417 kts 238°
2026-05-05 11:48 -35.28700 149.56383 34103 ft 416 kts 238°
2026-05-05 11:49 -35.32066 149.50613 34103 ft 416 kts 238°
2026-05-05 11:49 -35.35970 149.43908 34103 ft 416 kts 238°
2026-05-05 11:50 -35.38782 149.39071 34102 ft 416 kts 238°
2026-05-05 11:50 -35.42681 149.32353 34092 ft 416 kts 238°
2026-05-05 11:51 -35.45464 149.27549 34107 ft 415 kts 238°
2026-05-05 11:51 -35.48808 149.21769 34096 ft 415 kts 238°
2026-05-05 11:52 -35.52146 149.15989 34110 ft 415 kts 238°
2026-05-05 11:52 -35.55486 149.10196 34109 ft 415 kts 238°
2026-05-05 11:53 -35.58817 149.04410 34108 ft 415 kts 238°
2026-05-05 11:53 -35.62142 148.98623 34120 ft 415 kts 238°
2026-05-05 11:54 -35.65467 148.92827 34128 ft 414 kts 238°
2026-05-05 11:54 -35.68790 148.87027 34121 ft 415 kts 238°
2026-05-05 11:55 -35.72088 148.81258 34121 ft 414 kts 237°
2026-05-05 11:55 -35.75399 148.75459 34123 ft 414 kts 237°
2026-05-05 11:56 -35.78711 148.69648 34124 ft 414 kts 237°
2026-05-05 11:56 -35.82017 148.63836 34122 ft 414 kts 238°
2026-05-05 11:57 -35.85319 148.58023 34084 ft 415 kts 237°
2026-05-05 11:57 -35.88624 148.52193 34040 ft 415 kts 237°
2026-05-05 11:58 -35.91924 148.46339 34035 ft 415 kts 237°
2026-05-05 11:58 -35.95215 148.40492 34037 ft 415 kts 237°
2026-05-05 11:59 -35.98509 148.34632 34035 ft 415 kts 237°
2026-05-05 11:59 -36.01805 148.28755 34034 ft 417 kts 237°
2026-05-05 12:00 -36.05081 148.22908 34029 ft 416 kts 237°
2026-05-05 12:00 -36.08375 148.17014 34023 ft 417 kts 237°
2026-05-05 12:01 -36.11671 148.11110 34020 ft 417 kts 237°
2026-05-05 12:01 -36.14974 148.05206 34018 ft 417 kts 236°
2026-05-05 12:02 -36.18273 147.99305 34017 ft 417 kts 237°
2026-05-05 12:02 -36.21567 147.93395 34019 ft 417 kts 237°
2026-05-05 12:03 -36.24862 147.87479 34019 ft 417 kts 237°
2026-05-05 12:03 -36.28153 147.81557 34030 ft 418 kts 236°
2026-05-05 12:04 -36.31449 147.75618 34026 ft 418 kts 236°
2026-05-05 12:04 -36.34737 147.69676 34026 ft 418 kts 237°
2026-05-05 12:05 -36.37998 147.63759 34022 ft 418 kts 237°
2026-05-05 12:05 -36.41278 147.57809 34029 ft 418 kts 237°
2026-05-05 12:06 -36.44574 147.51806 34029 ft 418 kts 237°
2026-05-05 12:06 -36.47830 147.45876 34024 ft 418 kts 237°
2026-05-05 12:07 -36.51103 147.39898 34026 ft 418 kts 237°
2026-05-05 12:07 -36.54369 147.33926 34028 ft 418 kts 237°
2026-05-05 12:08 -36.57638 147.27937 34028 ft 418 kts 237°
2026-05-05 12:08 -36.60903 147.21944 34027 ft 418 kts 237°
2026-05-05 12:09 -36.64142 147.15989 34023 ft 418 kts 237°
2026-05-05 12:09 -36.67400 147.09990 34026 ft 418 kts 237°
2026-05-05 12:10 -36.70653 147.03988 34024 ft 418 kts 237°
2026-05-05 12:10 -36.73902 146.97981 34023 ft 418 kts 237°
2026-05-05 12:11 -36.77148 146.91971 34021 ft 418 kts 237°
2026-05-05 12:11 -36.80390 146.85957 34035 ft 417 kts 237°
2026-05-05 12:12 -36.83626 146.79943 34015 ft 417 kts 237°
2026-05-05 12:12 -36.86840 146.73961 34020 ft 417 kts 237°
2026-05-05 12:13 -36.90070 146.67936 34019 ft 417 kts 237°
2026-05-05 12:13 -36.93297 146.61907 34032 ft 417 kts 237°
2026-05-05 12:14 -36.96519 146.55878 34035 ft 416 kts 237°
2026-05-05 12:14 -36.99735 146.49848 34032 ft 417 kts 237°
2026-05-05 12:15 -37.02949 146.43810 33827 ft 417 kts 237°
2026-05-05 12:15 -37.04559 146.40783 33439 ft 418 kts 237°
2026-05-05 12:15 -37.06174 146.37740 33092 ft 420 kts 237°
2026-05-05 12:16 -37.07789 146.34698 32747 ft 420 kts 237°
2026-05-05 12:16 -37.09388 146.31683 32340 ft 421 kts 237°
2026-05-05 12:16 -37.11031 146.28582 31683 ft 421 kts 237°
2026-05-05 12:16 -37.12628 146.25565 31034 ft 420 kts 237°
2026-05-05 12:17 -37.14238 146.22519 30350 ft 419 kts 237°
2026-05-05 12:17 -37.15845 146.19478 29619 ft 417 kts 237°
2026-05-05 12:17 -37.17452 146.16433 28913 ft 418 kts 237°
2026-05-05 12:17 -37.19060 146.13382 28174 ft 421 kts 237°
2026-05-05 12:18 -37.20676 146.10317 27415 ft 422 kts 237°
2026-05-05 12:18 -37.22300 146.07230 26624 ft 424 kts 236°
2026-05-05 12:18 -37.23931 146.04129 25817 ft 426 kts 236°
2026-05-05 12:18 -37.25565 146.01018 24971 ft 429 kts 236°
2026-05-05 12:19 -37.27213 145.97880 24084 ft 431 kts 236°
2026-05-05 12:19 -37.28869 145.94723 23126 ft 433 kts 236°
2026-05-05 12:19 -37.30499 145.91612 22204 ft 431 kts 236°
2026-05-05 12:19 -37.32138 145.88485 21276 ft 427 kts 237°
2026-05-05 12:20 -37.33772 145.85380 20353 ft 424 kts 237°
2026-05-05 12:20 -37.35393 145.82295 19439 ft 422 kts 237°
2026-05-05 12:20 -37.36999 145.79230 18537 ft 419 kts 237°
2026-05-05 12:20 -37.38599 145.76171 17598 ft 415 kts 237°
2026-05-05 12:21 -37.40180 145.73149 16707 ft 411 kts 237°
2026-05-05 12:21 -37.41741 145.70164 15833 ft 407 kts 237°
2026-05-05 12:21 -37.43288 145.67203 14949 ft 403 kts 237°
2026-05-05 12:21 -37.44817 145.64271 14097 ft 400 kts 237°
2026-05-05 12:22 -37.46327 145.61345 13209 ft 395 kts 238°
2026-05-05 12:22 -37.47782 145.58428 12368 ft 390 kts 238°
2026-05-05 12:22 -37.49210 145.55552 11541 ft 385 kts 238°
2026-05-05 12:22 -37.50631 145.52737 10988 ft 375 kts 237°
2026-05-05 12:23 -37.51980 145.50074 10767 ft 356 kts 237°
2026-05-05 12:23 -37.53253 145.47539 10628 ft 322 kts 238°
2026-05-05 12:23 -37.54387 145.45272 10490 ft 291 kts 238°
2026-05-05 12:23 -37.55422 145.43208 10363 ft 267 kts 238°
2026-05-05 12:24 -37.56380 145.41301 10238 ft 249 kts 238°
2026-05-05 12:24 -37.57285 145.39494 10135 ft 240 kts 238°
2026-05-05 12:24 -37.58208 145.37651 9938 ft 262 kts 238°
2026-05-05 12:24 -37.59216 145.35638 9622 ft 278 kts 238°
2026-05-05 12:25 -37.60254 145.33563 9283 ft 279 kts 238°
2026-05-05 12:25 -37.61286 145.31500 8943 ft 277 kts 238°
2026-05-05 12:25 -37.62296 145.29479 8613 ft 275 kts 238°
2026-05-05 12:25 -37.63322 145.27423 8277 ft 272 kts 238°
2026-05-05 12:26 -37.64266 145.25534 8019 ft 240 kts 238°
2026-05-05 12:26 -37.65100 145.23862 7721 ft 212 kts 238°
2026-05-05 12:26 -37.65849 145.22360 7462 ft 193 kts 238°
2026-05-05 12:26 -37.66533 145.20987 7239 ft 178 kts 239°
2026-05-05 12:27 -37.67168 145.19710 7046 ft 168 kts 238°
2026-05-05 12:27 -37.67790 145.18461 6846 ft 167 kts 239°
2026-05-05 12:27 -37.68407 145.17221 6649 ft 166 kts 238°
2026-05-05 12:27 -37.69018 145.15991 6451 ft 165 kts 239°
2026-05-05 12:28 -37.69630 145.14763 6254 ft 164 kts 239°
2026-05-05 12:28 -37.70235 145.13544 6060 ft 164 kts 239°
2026-05-05 12:28 -37.70839 145.12329 5867 ft 163 kts 239°
2026-05-05 12:28 -37.71440 145.11120 5684 ft 162 kts 239°
2026-05-05 12:29 -37.72038 145.09917 5496 ft 161 kts 239°
2026-05-05 12:29 -37.72632 145.08720 5307 ft 160 kts 238°
2026-05-05 12:29 -37.73215 145.07544 5124 ft 159 kts 239°
2026-05-05 12:29 -37.73803 145.06359 4945 ft 159 kts 239°
2026-05-05 12:30 -37.74384 145.05188 4740 ft 153 kts 239°
2026-05-05 12:30 -37.74935 145.04076 4574 ft 148 kts 239°
2026-05-05 12:30 -37.75481 145.02976 4406 ft 147 kts 239°
2026-05-05 12:30 -37.76023 145.01882 4239 ft 147 kts 239°
2026-05-05 12:31 -37.76564 145.00789 4062 ft 146 kts 239°
2026-05-05 12:31 -37.77104 144.99697 3917 ft 146 kts 239°
2026-05-05 12:31 -37.77640 144.98615 3857 ft 148 kts 239°
2026-05-05 12:31 -37.78183 144.97516 3768 ft 147 kts 239°
2026-05-05 12:32 -37.78722 144.96428 3676 ft 144 kts 240°
2026-05-05 12:32 -37.79251 144.95358 3609 ft 143 kts 240°
2026-05-05 12:32 -37.79779 144.94289 3530 ft 143 kts 240°
2026-05-05 12:32 -37.80306 144.93222 3444 ft 143 kts 240°
2026-05-05 12:33 -37.80832 144.92159 3358 ft 142 kts 240°
2026-05-05 12:33 -37.81355 144.91099 3285 ft 142 kts 240°
2026-05-05 12:33 -37.81880 144.90036 3207 ft 142 kts 240°
2026-05-05 12:33 -37.82296 144.88927 3111 ft 139 kts 265°
2026-05-05 12:34 -37.82188 144.87733 3031 ft 137 kts 292°
2026-05-05 12:34 -37.81609 144.86785 2879 ft 138 kts 321°
2026-05-05 12:34 -37.80742 144.86361 2701 ft 129 kts 350°
2026-05-05 12:34 -37.79890 144.86216 2550 ft 123 kts 347°
2026-05-05 12:35 -37.79065 144.86063 2391 ft 119 kts 347°
2026-05-05 12:35 -37.78233 144.85905 2233 ft 124 kts 347°
2026-05-05 12:35 -37.77377 144.85746 2065 ft 124 kts 347°
2026-05-05 12:35 -37.76514 144.85604 1862 ft 126 kts 349°
2026-05-05 12:36 -37.75637 144.85466 1670 ft 127 kts 347°
2026-05-05 12:36 -37.74759 144.85294 1461 ft 128 kts 348°
2026-05-05 12:36 -37.73882 144.85115 1275 ft 125 kts 347°
2026-05-05 12:36 -37.73320 144.84994 1172 ft 123 kts 351°
2026-05-05 12:37 -37.72475 144.84861 1061 ft 119 kts 350°
2026-05-05 12:37 -37.71653 144.84695 920 ft 118 kts 347°
2026-05-05 12:37 -37.70838 144.84527 793 ft 119 kts 350°
2026-05-05 12:37 -37.70016 144.84376 661 ft 121 kts 348°
2026-05-05 12:38 -37.69166 144.84209 474 ft 125 kts 351°
2026-05-05 12:38 -37.68309 144.84056 370 ft 120 kts 349°
2026-05-05 12:38 -37.67588 144.83910 368 ft 83 kts 352°
2026-05-05 12:38 -37.67184 144.83843 379 ft 35 kts 346°
2026-05-05 12:39 -37.67036 144.83837 382 ft 12 kts
2026-05-05 12:39 -37.66969 144.83853 383 ft 9 kts 13°
2026-05-05 12:39 -37.66913 144.83876 384 ft 6 kts 22°
2026-05-05 12:39 -37.66911 144.83877 384 ft 1 kts 23°
2026-05-05 12:40 -37.66903 144.83881 384 ft 2 kts 23°
2026-05-05 12:40 -37.66885 144.83890 384 ft 4 kts 22°
2026-05-05 12:40 -37.66863 144.83902 384 ft 1 kts 22°
2026-05-05 12:40 -37.66856 144.83906 384 ft 4 kts 21°
2026-05-05 12:41 -37.66815 144.83933 384 ft 8 kts 45°
2026-05-05 12:41 -37.66807 144.83964 383 ft 2 kts 77°
2026-05-05 12:41 -37.66806 144.83968 383 ft 2 kts 78°
2026-05-05 12:41 -37.66806 144.83977 382 ft 0 kts 83°
2026-05-05 12:42 -37.66805 144.83983 402 ft 3 kts 82°
2026-05-05 12:42 -37.66803 144.84004 397 ft 0 kts 85°
2026-05-05 12:42 -37.66803 144.84008 373 ft 1 kts 87°